{"data":{"norad_id":68658,"intl_designator":"2026-076C","name":"HULIANWANG DIGUI-166","alt_names":[],"object_type":"PAYLOAD","status":"ACTIVE","operator":null,"country":"PRC","launch_date":"2026-04-08","launch_site_code":"TAISC","launch_vehicle":null,"mission":null,"orbit_class":"UNKNOWN","rcs_meters":null,"size_class":null,"mass_kg":null,"dimensions":null,"purposes":[],"wikipedia_slug":null,"has_3d_model":false,"image_url":null,"decayed_at":null,"tle_current":{"epoch":"2026-05-24T13:39:53.853984Z","epoch_age_seconds":106151,"freshness":"FRESH","line1":"1 68658U 26076C   26144.56937331 -.00000218  00000+0 -46598-3 0  9995","line2":"2 68658  86.4938  51.8443 0001795  64.0295 296.1030 13.34697661  6245","mean_motion":13.34697661,"eccentricity":0.0001795,"inclination_deg":86.4938,"raan_deg":51.8443,"arg_perigee_deg":64.0295,"mean_anomaly_deg":296.103,"bstar":-0.00046598,"rev_number":624,"period_min":107.88960242285,"perigee_km":1127.7486805139,"apogee_km":1130.4437772431,"semimajor_km":7507.2332288785,"source":"CELESTRAK","updated_at":"2026-05-25T13:38:07.995681Z"}}}